Pawtucket, RI

8:01 AM EDT on June 18, 2018 (GMT -0400)
North Central State

Weather History for KSFZ - December, 2017

Change the Weather History Date:

Thursday, December 7, 2017

  Actual Average Record
Temperature  
Mean Temperature 36 °F -  
Max Temperature 44 °F 40 °F 75 °F (1998)
Min Temperature 28 °F 26 °F 12 °F (2002)
Degree Days  
Heating Degree Days 29    
Moisture  
Dew Point 20 °F    
Average Humidity 56    
Maximum Humidity 78    
Minimum Humidity 35    
Precipitation  
Precipitation 0.00 in - - ()
Sea Level Pressure  
Sea Level Pressure 29.77 in    
Wind  
Wind Speed 5 mph (WSW)    
Max Wind Speed 12 mph    
Max Gust Speed 18 mph    
Visibility 10 miles    
Events      
Averages and records for this station are not official NWS values.
T = Trace of Precipitation, MM = Missing Value Source: NWS Daily Summary

Daily Weather History Graph

Daily Weather History Graph

Search for Another Location

Airport or City:

Astronomy

Dec. 07, 2017 Rise Set
Actual Time 7:00 AM EST 4:14 PM EST
Civil Twilight 6:28 AM EST 4:46 PM EST
Nautical Twilight 5:53 AM EST 5:21 PM EST
Astronomical Twilight 5:20 AM EST 5:54 PM EST
Moon 8:59 PM EST (12/7) 10:36 AM EST (12/7)
Length of Visible Light 10h 17m
Length of Day
9h 14m
Waning Gibbous, 78% of the Moon is Illuminated
Dec 7
Waning Gibbous
Dec 10
Last Quarter
Dec 18
New
Dec 26
First Quarter
Jan 1
Full

Hourly Weather History & Observations

Time (EST) Temp. Windchill Dew Point Humidity Pressure Visibility Wind Dir Wind Speed Gust Speed Precip Events Conditions
12:56 AM 32.0 °F 28.7 °F 21.0 °F 64% 29.79 in 10.0 mi SW 3.5 mph - N/A   Clear
1:56 AM 30.9 °F 25.2 °F 23.0 °F 72% 29.80 in 10.0 mi SW 5.8 mph - N/A   Clear
2:56 AM 30.9 °F 27.5 °F 21.9 °F 69% 29.78 in 10.0 mi WSW 3.5 mph - N/A   Clear
3:56 AM 30.9 °F 25.2 °F 21.9 °F 69% 29.77 in 10.0 mi SW 5.8 mph - N/A   Clear
4:56 AM 30.0 °F 25.2 °F 23.0 °F 75% 29.76 in 10.0 mi SW 4.6 mph - N/A   Clear
5:56 AM 28.9 °F 23.9 °F 23.0 °F 78% 29.78 in 10.0 mi SW 4.6 mph - N/A   Clear
6:56 AM 28.9 °F 25.2 °F 21.9 °F 75% 29.78 in 10.0 mi WSW 3.5 mph - N/A   Clear
7:56 AM 30.9 °F 25.2 °F 23.0 °F 72% 29.79 in 10.0 mi West 5.8 mph - N/A   Clear
8:56 AM 36.0 °F 29.6 °F 23.0 °F 59% 29.80 in 10.0 mi West 8.1 mph - N/A   Clear
9:56 AM 39.0 °F 32.8 °F 23.0 °F 53% 29.80 in 10.0 mi WNW 9.2 mph 18.4 mph N/A   Clear
10:56 AM 42.1 °F 35.7 °F 23.0 °F 47% 29.78 in 10.0 mi WNW 11.5 mph - N/A   Clear
11:56 AM 44.1 °F 40.8 °F 21.9 °F 42% 29.76 in 10.0 mi Variable 5.8 mph - N/A   Clear
12:56 PM 44.1 °F 41.5 °F 19.9 °F 38% 29.74 in 10.0 mi Variable 4.6 mph - N/A   Clear
1:56 PM 44.1 °F 39.5 °F 18.0 °F 35% 29.72 in 10.0 mi WSW 8.1 mph - N/A   Clear
2:56 PM 43.0 °F 38.2 °F 18.0 °F 37% 29.72 in 10.0 mi WNW 8.1 mph - N/A   Clear
3:56 PM 39.9 °F 35.8 °F 18.0 °F 41% 29.73 in 10.0 mi West 5.8 mph - N/A   Clear
4:56 PM 37.9 °F 34.4 °F 17.1 °F 43% 29.74 in 10.0 mi West 4.6 mph - N/A   Clear
5:56 PM 36.0 °F 32.1 °F 18.0 °F 48% 29.75 in 10.0 mi West 4.6 mph - N/A   Clear
6:56 PM 34.0 °F 29.8 °F 19.0 °F 54% 29.77 in 10.0 mi WSW 4.6 mph - N/A   Clear
7:56 PM 32.0 °F 28.7 °F 19.0 °F 59% 29.78 in 10.0 mi SW 3.5 mph - N/A   Clear
8:56 PM 32.0 °F 28.7 °F 19.0 °F 59% 29.79 in 10.0 mi SW 3.5 mph - N/A   Clear
9:56 PM 32.0 °F 25.6 °F 17.1 °F 54% 29.80 in 10.0 mi Variable 6.9 mph - N/A   Clear
10:56 PM 34.0 °F 28.0 °F 18.0 °F 52% 29.82 in 10.0 mi Variable 6.9 mph - N/A   Clear
11:56 PM 33.1 °F 27.7 °F 18.0 °F 54% 29.81 in 10.0 mi WSW 5.8 mph - N/A   Clear